Temp
86 94 93 86 82 87 80 81 91 86 87 91 91 87 84 85 81 74 95 97 96 97 95 90 83 83 83 83 82 83 83 83 83 83 83 83 83 84 84 84 84 85 85 85 85 85 85 84 84
96 90 89 87 82 79 79 88 84 87 89 92 91 89 87 81 89 88 91 95 97 98 97 94 82 83 83 82 83 82 83 83 83 83 83 83 83 84 84 85 85 85 85 85 85 85 85 84 84
93 90 87 88 85 78 79 87 88 89 91 91 88 93 88 83 87 92 96 96 97 97 99 92 83 83 83 83 83 83 83 83 83 83 84 84 84 84 85 84 84 84 85 85 85 85 84 84 84
91 89 90 84 80 85 85 89 91 90 92 94 92 85 90 91 92 96 96 97 96 97 100 85 83 83 83 83 83 83 83 83 83 84 84 84 84 84 85 84 84 84 85 85 85 85 84 84 84
98 93 87 83 81 87 90 92 92 90 90 91 92 84 85 91 96 96 95 97 96 97 98 91 83 83 83 83 83 83 83 83 83 84 84 84 84 84 84 85 85 84 84 84 84 85 84 84 84
90 90 84 79 83 88 93 96 94 92 93 91 90 89 88 94 94 95 97 96 99 97 97 93 84 83 83 83 83 83 83 84 84 84 84 84 84 84 84 84 84 84 84 84 84 84 84 84 84
87 87 79 81 82 84 89 97 93 92 92 91 95 87 89 92 96 96 95 97 98 98 97 93 92 87 83 83 83 83 84 84 84 84 83 84 84 84 84 84 84 84 84 83 84 83 84 84 84
91 89 80 84 82 83 93 94 97 94 91 98 96 88 86 93 96 97 96 95 96 96 97 94 92 90 89 90 83 82 83 83 83 83 83 83 83 84 84 82 82 82 83 83 84 83 84 83 83
91 85 80 79 82 85 96 92 98 98 94 95 98 95 98 96 96 95 93 93 92 94 95 96 94 85 87 87 87 83 83 83 83 84 84 85 92 90 88 87 83 83 83 83 83 84 83 83 83
90 87 82 88 89 87 93 93 95 94 94 95 94 94 97 94 93 91 89 89 90 91 94 96 95 94 87 92 87 87 90 91 88 86 85 91 91 90 91 88 83 83 83 83 83 83 83 84 95
90 85 90 91 93 94 93 94 98 93 91 97 94 96 92 92 91 91 91 92 91 92 94 94 94 93 93 93 93 92 92 93 92 88 85 84 83 82 83 87 88 89 85 91 89 88 92 92 97
84 90 91 93 95 93 91 96 94 96 96 102 101 100 94 91 91 92 91 92 93 92 93 95 94 91 92 93 93 94 94 93 93 91 88 86 83 80 81 85 90 89 92 90 92 92 94 94 93
86 90 92 95 95 95 95 93 93 94 101 103 102 99 97 94 93 94 95 95 94 91 92 92 91 89 90 89 92 92 93 93 93 92 89 91 90 82 85 87 89 90 92 92 91 90 89 90 91
91 90 92 94 92 93 90 93 92 97 101 100 99 98 100 95 95 94 93 93 93 92 91 92 89 88 89 88 88 89 92 93 93 93 92 88 89 85 88 86 89 92 92 90 92 91 90 90 92
91 86 91 91 91 90 93 88 88 96 98 96 98 97 98 99 97 94 94 92 93 93 93 91 88 88 87 86 87 89 91 92 91 92 90 88 88 87 87 90 90 92 91 89 89 88 90 90 91
87 87 84 90 90 90 91 83 92 98 97 96 97 97 95 96 99 96 95 93 93 93 90 90 91 89 87 86 87 89 91 91 92 92 92 85 87 87 86 90 91 92 92 91 90 88 89 89 90
86 81 80 83 90 89 88 84 92 96 95 94 96 97 95 95 94 94 95 95 94 92 89 88 88 88 87 86 87 87 87 90 92 92 92 88 85 88 88 90 91 88 91 90 88 90 88 88 88
78 79 82 80 87 88 86 86 89 92 94 92 93 93 93 92 94 94 93 95 94 92 90 87 88 87 86 88 86 89 90 89 92 91 92 88 87 87 87 89 88 88 86 85 82 83 88 89 89
82 80 79 83 87 85 84 84 86 89 92 91 91 90 92 92 95 96 94 94 95 91 88 87 85 85 86 85 86 87 87 88 90 92 89 88 88 87 85 89 89 87 86 86 84 84 83 84 88
82 79 81 84 86 86 85 83 87 88 87 89 90 89 90 93 92 92 92 93 93 90 88 85 85 84 85 87 86 89 89 91 91 91 90 88 88 87 87 86 88 88 85 85 85 82 82 82 85
83 80 80 80 85 87 84 81 83 88 89 90 92 91 90 88 89 88 90 91 94 90 88 87 85 85 85 80 86 83 89 88 88 89 89 88 87 87 86 87 87 88 88 89 85 84 83 81 82
79 84 82 81 80 77 85 74 80 84 87 89 91 91 90 89 89 89 89 88 89 90 92 89 87 85 86 84 84 75 81 85 86 88 90 90 87 87 87 87 86 86 90 86 85 83 84 81 81
79 85 82 81 80 78 80 76 80 84 82 86 89 89 90 90 90 88 88 87 88 89 91 90 89 86 85 85 85 84 83 89 83 90 88 86 86 86 88 87 87 86 87 87 86 85 83 80 83
85 82 82 82 82 71 77 76 78 83 82 84 87 88 88 89 90 89 89 88 87 89 89 88 86 85 84 82 83 83 84 85 88 84 86 89 90 88 86 87 86 86 87 86 87 85 85 85 79
85 81 72 69 70 69 76 73 77 82 83 84 83 86 88 89 89 88 88 87 87 87 86 86 84 83 85 85 83 82 83 84 85 87 87 88 90 90 87 85 85 87 86 87 87 85 85 84 83
78 78 70 58 63 69 75 68 77 82 85 86 86 87 88 89 90 88 88 87 86 87 86 85 83 82 84 85 85 85 83 86 87 87 90 90 92 91 90 87 87 86 87 87 86 87 86 83 82
77 74 81 71 73 67 73 76 82 82 83 85 86 87 86 86 87 87 87 86 85 86 85 85 84 83 84 86 84 84 84 83 84 87 87 91 90 93 92 89 86 87 87 87 86 87 85 84 82
80 82 71 74 58 57 69 67 71 76 79 83 84 85 85 85 86 87 87 87 86 86 86 86 86 83 83 84 83 84 83 80 83 86 86 87 90 89 90 88 88 87 87 87 86 87 86 83 83
77 75 74 75 70 62 60 70 80 78 81 80 83 84 82 82 83 84 86 87 86 87 87 85 85 83 84 83 82 83 85 84 81 82 84 85 87 87 86 87 88 87 87 87 85 85 87 81 81
80 76 75 67 63 69 66 66 85 82 83 83 83 82 83 84 84 84 84 84 85 84 84 84 83 83 83 83 82 81 78 82 84 85 85 86 84 86 85 86 87 87 87 87 85 85 87 84 82
MSLP
1009.32 1008.51 1008.61 1007.77 1005.83 1002.78 1002.29 1002.38 1002.03 1002.26 1002.52 1003.34 1003.85 1004.17 1004.87 1005.39 1005.41 1006.45 1008.02 1008.79 1009.59 1010.16 1011.26 1012.35 1012.92 1013.25 1013.73 1014.03 1014.25 1014.41 1014.71 1014.91 1015.17 1015.51 1015.66 1015.89 1016.21 1016.47 1016.64 1016.86 1017.08 1017.37 1017.58 1017.75 1017.81 1017.99 1018.17 1018.43 1018.66
1008.09 1008.39 1008.03 1006.03 1003.19 1001.54 1002.10 1002.21 1002.38 1002.87 1003.39 1003.75 1003.92 1004.16 1004.53 1005.57 1006.55 1007.34 1008.22 1009.35 1009.79 1010.16 1011.15 1012.09 1013.12 1013.40 1013.90 1014.32 1014.59 1014.55 1014.90 1015.18 1015.48 1015.75 1016.00 1016.27 1016.57 1016.79 1016.95 1017.09 1017.29 1017.57 1017.80 1018.03 1018.11 1018.21 1018.43 1018.70 1018.89
1008.33 1008.19 1006.39 1004.05 1002.58 1001.66 1001.79 1002.22 1002.45 1003.13 1003.38 1003.20 1003.63 1004.30 1004.88 1006.15 1007.10 1007.60 1008.49 1009.49 1009.94 1010.50 1010.77 1012.24 1013.35 1013.63 1014.07 1014.45 1014.73 1014.94 1015.12 1015.42 1015.76 1016.07 1016.32 1016.50 1016.80 1017.06 1017.18 1017.39 1017.59 1017.86 1018.04 1018.25 1018.37 1018.51 1018.61 1018.93 1019.10
1007.83 1007.16 1005.74 1003.21 1002.07 1002.33 1002.19 1002.22 1002.50 1002.38 1002.90 1003.34 1003.71 1004.32 1005.90 1006.94 1007.20 1007.58 1009.08 1009.68 1010.18 1010.49 1010.74 1013.00 1013.52 1013.70 1014.13 1014.57 1014.93 1015.09 1015.38 1015.63 1015.97 1016.29 1016.53 1016.75 1017.06 1017.25 1017.45 1017.61 1017.79 1018.03 1018.22 1018.45 1018.67 1018.77 1018.93 1019.15 1019.34
1006.77 1005.42 1002.90 1002.36 1002.45 1002.17 1002.29 1002.42 1002.53 1002.26 1002.86 1003.15 1003.52 1004.53 1005.79 1007.13 1007.59 1008.45 1009.30 1009.91 1010.33 1010.67 1011.12 1012.85 1013.64 1013.97 1014.26 1014.60 1014.93 1015.24 1015.60 1015.85 1016.20 1016.46 1016.71 1016.96 1017.18 1017.48 1017.59 1017.81 1017.98 1018.23 1018.49 1018.66 1018.83 1019.02 1019.21 1019.38 1019.60
1005.61 1005.25 1002.74 1002.03 1002.22 1002.13 1002.05 1002.21 1002.13 1002.06 1002.49 1003.13 1003.32 1004.10 1005.44 1007.00 1007.49 1008.24 1009.28 1009.93 1010.34 1010.73 1011.45 1012.59 1013.62 1014.13 1014.43 1014.85 1015.10 1015.51 1015.87 1016.05 1016.33 1016.60 1016.85 1017.10 1017.34 1017.64 1017.74 1017.96 1018.21 1018.42 1018.64 1018.79 1018.95 1019.25 1019.47 1019.54 1019.76
1005.24 1004.12 1003.45 1002.72 1002.42 1002.16 1002.33 1002.44 1002.06 1002.20 1002.12 1002.54 1003.30 1003.63 1005.67 1006.74 1007.42 1008.08 1008.93 1009.82 1010.37 1010.79 1011.37 1012.51 1013.32 1014.10 1014.62 1014.86 1015.27 1015.54 1015.94 1016.26 1016.46 1016.80 1017.11 1017.24 1017.43 1017.66 1017.80 1018.16 1018.35 1018.56 1018.73 1019.07 1019.13 1019.49 1019.66 1019.82 1019.89
1005.70 1004.48 1003.63 1003.03 1002.56 1002.20 1002.31 1002.30 1002.07 1002.18 1002.26 1002.93 1003.40 1003.11 1004.45 1006.12 1007.57 1008.36 1008.97 1009.50 1010.31 1010.88 1011.33 1012.08 1012.85 1013.65 1014.21 1014.79 1015.28 1015.64 1016.13 1016.18 1016.70 1017.00 1017.24 1017.39 1017.46 1017.82 1017.93 1018.26 1018.53 1018.74 1018.98 1019.13 1019.23 1019.55 1019.85 1019.98 1020.15
1006.06 1004.05 1003.26 1003.45 1002.93 1002.51 1002.28 1002.20 1002.01 1002.77 1002.40 1002.69 1002.80 1003.35 1003.95 1005.92 1007.24 1008.18 1009.04 1009.56 1010.23 1010.79 1011.25 1011.70 1012.50 1013.74 1014.11 1014.57 1015.24 1015.85 1016.05 1016.34 1016.62 1016.93 1017.25 1017.42 1016.85 1017.37 1017.86 1017.85 1018.47 1018.88 1019.06 1019.27 1019.40 1019.63 1019.94 1020.17 1020.33
1004.88 1003.53 1003.20 1003.75 1003.46 1003.16 1002.41 1002.30 1002.16 1002.02 1001.79 1001.67 1002.49 1003.95 1004.69 1005.88 1006.97 1007.71 1008.40 1008.83 1009.65 1010.28 1010.97 1011.54 1012.08 1012.91 1013.97 1014.23 1014.98 1015.46 1015.62 1015.85 1016.35 1016.57 1017.12 1016.71 1016.72 1017.16 1017.39 1017.92 1018.64 1018.92 1019.18 1019.34 1019.48 1019.76 1019.97 1020.17 1019.15
1004.41 1003.41 1003.39 1003.29 1003.32 1003.29 1002.75 1002.10 1002.03 1001.88 1001.33 1001.35 1001.87 1002.64 1004.89 1005.91 1006.61 1007.15 1007.87 1008.32 1008.89 1009.80 1010.72 1011.41 1011.98 1012.62 1013.21 1013.51 1014.28 1014.74 1015.01 1015.09 1015.57 1016.17 1016.86 1017.21 1017.58 1017.91 1017.96 1017.93 1018.34 1018.49 1019.02 1018.63 1019.17 1019.51 1019.20 1019.10 1018.28
1004.47 1003.91 1003.70 1003.32 1003.30 1003.15 1002.74 1002.36 1001.86 1001.51 1001.50 1001.45 1001.70 1002.36 1004.17 1005.31 1006.01 1006.53 1007.29 1007.95 1008.66 1009.48 1010.33 1011.22 1011.91 1012.71 1013.12 1013.54 1014.05 1014.12 1014.41 1014.86 1015.16 1015.76 1016.39 1016.91 1017.57 1017.91 1017.84 1017.88 1017.58 1017.94 1017.91 1018.01 1018.10 1018.08 1018.09 1018.36 1018.93
1004.38 1003.78 1003.68 1003.35 1003.11 1002.89 1002.65 1002.15 1001.76 1001.50 1001.22 1001.38 1001.61 1002.19 1003.14 1004.55 1005.35 1006.32 1007.07 1007.83 1008.52 1009.30 1010.13 1011.11 1011.99 1012.74 1013.15 1013.73 1013.88 1014.01 1014.31 1014.80 1014.93 1015.46 1016.20 1016.25 1016.47 1017.39 1017.48 1017.27 1017.46 1017.61 1017.63 1017.66 1017.85 1017.89 1018.34 1018.64 1019.01
1003.94 1003.94 1003.41 1002.87 1002.81 1002.58 1002.35 1001.72 1001.86 1001.12 1001.30 1001.30 1001.42 1001.80 1002.33 1003.50 1004.65 1005.78 1006.58 1007.33 1008.14 1009.15 1009.95 1010.90 1012.00 1012.69 1013.08 1013.72 1014.00 1014.25 1014.36 1014.46 1014.89 1015.15 1015.55 1016.29 1016.41 1016.89 1016.89 1017.24 1017.19 1017.07 1017.50 1017.89 1017.74 1017.73 1018.09 1018.41 1018.43
1003.98 1003.39 1002.48 1002.61 1002.66 1002.32 1002.26 1001.50 1001.34 1001.70 1001.43 1001.17 1001.07 1001.52 1002.03 1002.66 1004.18 1005.35 1006.31 1007.11 1007.96 1008.71 1009.54 1010.51 1011.75 1012.59 1012.98 1013.46 1013.98 1014.17 1014.14 1014.52 1014.81 1015.02 1015.41 1016.11 1016.44 1016.62 1016.74 1016.71 1016.78 1016.88 1017.11 1017.72 1017.84 1017.99 1018.04 1018.14 1018.16
1003.38 1002.81 1001.53 1002.11 1002.37 1002.43 1002.09 1000.65 1001.35 1001.57 1001.28 1000.98 1001.05 1001.34 1002.04 1002.67 1003.27 1004.67 1005.85 1006.95 1007.82 1008.45 1009.22 1010.18 1011.02 1011.87 1012.54 1013.07 1013.52 1013.75 1013.84 1014.19 1014.33 1014.64 1015.03 1016.10 1016.43 1016.62 1017.01 1016.50 1016.48 1016.63 1016.89 1017.19 1017.48 1017.85 1017.79 1017.87 1017.89
1002.67 1001.54 1001.81 1001.83 1002.46 1002.38 1002.04 1001.04 1001.36 1001.73 1001.46 1001.31 1001.21 1001.41 1002.04 1002.68 1003.59 1004.47 1005.65 1006.50 1007.23 1007.91 1008.79 1009.64 1010.43 1011.26 1012.07 1012.66 1013.09 1013.41 1013.65 1014.02 1014.04 1014.34 1014.64 1015.32 1016.15 1016.25 1016.42 1016.38 1016.34 1016.85 1016.73 1016.77 1017.06 1017.32 1017.58 1017.55 1017.73
1002.32 1002.03 1001.85 1001.89 1002.13 1001.99 1001.58 1001.41 1001.78 1001.93 1001.52 1001.65 1001.80 1001.95 1002.30 1002.82 1003.41 1004.59 1005.47 1006.18 1006.84 1007.55 1008.45 1009.32 1009.79 1010.38 1011.39 1012.26 1012.82 1012.95 1013.05 1013.53 1013.54 1013.76 1014.06 1014.81 1015.41 1015.80 1016.10 1015.93 1016.20 1016.52 1016.54 1016.90 1017.38 1017.41 1017.21 1017.24 1017.30
1003.30 1002.78 1002.24 1002.20 1002.57 1002.34 1001.83 1001.71 1001.90 1002.19 1002.00 1002.17 1002.35 1002.52 1002.63 1002.96 1003.59 1004.49 1005.46 1006.27 1006.74 1008.02 1008.68 1009.26 1010.00 1010.34 1010.97 1011.20 1011.70 1012.00 1012.12 1012.59 1012.87 1013.03 1013.65 1014.23 1014.67 1015.13 1015.56 1015.44 1015.70 1016.12 1016.29 1016.42 1017.01 1017.18 1017.38 1017.41 1017.07
1003.18 1002.66 1002.00 1002.20 1002.60 1002.31 1001.57 1001.65 1002.00 1002.29 1002.57 1002.80 1002.76 1003.26 1003.33 1003.32 1004.01 1004.70 1005.49 1006.15 1006.74 1007.68 1008.44 1009.06 1009.47 1009.88 1010.04 1010.76 1011.15 1011.41 1011.88 1011.99 1012.18 1012.39 1012.82 1013.59 1013.95 1014.36 1014.63 1014.97 1014.99 1015.38 1015.71 1015.95 1016.28 1016.79 1016.70 1016.89 1017.11
1002.88 1002.55 1002.21 1002.28 1002.15 1001.91 1001.77 1001.31 1001.67 1002.05 1002.41 1002.69 1003.10 1003.68 1004.20 1004.52 1004.76 1005.31 1005.64 1006.03 1006.07 1007.25 1008.11 1008.57 1008.93 1009.22 1009.73 1010.87 1011.18 1011.61 1011.47 1011.83 1011.77 1011.59 1012.05 1012.58 1013.05 1013.38 1013.90 1014.17 1014.54 1014.75 1015.14 1014.93 1015.76 1016.16 1016.37 1016.64 1016.79
1002.22 1003.14 1002.98 1002.64 1002.13 1000.92 1001.79 1000.50 1001.01 1001.81 1001.93 1002.35 1002.98 1003.52 1004.22 1004.91 1005.38 1005.73 1005.88 1006.40 1006.74 1007.10 1007.32 1007.76 1008.20 1008.80 1009.36 1010.48 1010.55 1010.38 1009.79 1010.12 1010.80 1010.76 1011.02 1011.52 1012.33 1012.59 1012.92 1013.33 1013.77 1014.31 1014.36 1014.54 1014.99 1015.44 1015.72 1016.21 1016.03
1003.30 1003.43 1003.03 1002.68 1002.13 1001.79 1001.10 1001.14 1000.41 1001.53 1001.77 1002.17 1002.96 1003.73 1004.34 1004.98 1005.53 1005.92 1006.30 1006.64 1006.85 1007.10 1007.21 1007.21 1007.24 1007.99 1008.79 1009.47 1009.56 1009.57 1009.58 1009.58 1010.25 1009.79 1010.31 1011.04 1011.47 1011.91 1012.15 1012.53 1012.83 1013.44 1013.92 1013.98 1014.35 1014.82 1015.41 1015.86 1015.78
1003.96 1003.44 1002.95 1002.60 1001.83 1001.18 1001.00 1001.55 1000.48 1000.83 1001.93 1002.65 1003.31 1003.95 1004.57 1005.01 1005.44 1005.97 1006.48 1006.89 1007.05 1007.14 1007.21 1007.29 1007.32 1007.47 1008.07 1008.83 1009.23 1009.05 1008.84 1009.15 1009.14 1009.51 1009.57 1009.87 1010.62 1011.23 1011.49 1011.84 1012.30 1012.53 1012.93 1013.27 1013.69 1014.14 1014.37 1014.62 1015.08
1003.45 1002.54 1001.64 1001.35 1000.92 1000.78 1002.04 1002.10 1001.35 1002.13 1002.98 1003.45 1003.97 1004.25 1004.70 1005.12 1005.44 1005.84 1006.20 1006.69 1006.95 1007.17 1007.44 1007.57 1007.68 1007.67 1007.60 1007.68 1008.11 1008.53 1008.59 1008.71 1008.44 1008.46 1008.94 1008.92 1009.33 1009.60 1010.08 1010.90 1011.46 1011.92 1012.31 1012.59 1013.11 1013.38 1013.62 1013.97 1014.22
1003.84 1003.70 1002.96 1002.29 1001.89 1001.59 1002.41 1002.03 1001.77 1003.27 1003.77 1004.14 1004.47 1004.68 1004.87 1005.10 1005.41 1005.85 1006.23 1006.64 1006.83 1007.03 1007.17 1007.33 1007.44 1007.58 1007.32 1006.96 1006.75 1006.97 1007.53 1007.68 1007.73 1007.79 1007.59 1008.10 1008.03 1008.39 1009.20 1010.11 1010.69 1011.31 1011.60 1012.03 1012.28 1012.62 1012.90 1013.27 1013.72
1004.14 1003.99 1004.29 1003.70 1003.05 1002.98 1002.14 1002.02 1002.62 1003.47 1003.72 1003.96 1004.18 1004.51 1004.93 1005.48 1005.80 1005.98 1006.22 1006.57 1006.81 1006.82 1006.84 1006.98 1007.00 1006.93 1006.71 1006.20 1006.00 1006.07 1006.40 1006.94 1006.82 1006.93 1007.17 1007.40 1007.52 1007.78 1008.31 1009.06 1009.83 1010.31 1010.81 1011.16 1011.54 1011.79 1011.94 1012.36 1012.82
1004.97 1004.99 1004.33 1003.71 1003.47 1002.68 1002.01 1002.64 1002.50 1003.13 1003.59 1004.01 1004.29 1004.74 1005.21 1005.67 1005.85 1005.93 1006.02 1006.27 1006.56 1006.67 1006.64 1006.71 1006.57 1006.51 1006.47 1006.03 1005.70 1005.69 1005.92 1006.29 1006.44 1006.53 1006.37 1006.64 1006.95 1007.46 1007.58 1008.29 1008.76 1009.43 1009.87 1010.32 1010.65 1010.71 1011.11 1011.65 1011.98
1004.84 1004.62 1005.03 1004.77 1004.66 1003.64 1002.90 1002.01 1002.89 1003.49 1003.85 1004.22 1004.51 1005.04 1005.71 1006.02 1006.15 1006.18 1006.23 1006.23 1006.35 1006.45 1006.41 1006.47 1006.34 1006.38 1006.15 1006.01 1005.79 1005.57 1005.35 1005.44 1005.81 1005.96 1005.81 1006.30 1006.58 1006.79 1007.32 1007.65 1007.93 1008.28 1008.58 1009.09 1009.56 1009.76 1009.78 1010.63 1011.24
1005.43 1004.79 1005.15 1004.75 1004.66 1004.34 1004.24 1003.40 1003.16 1003.91 1004.48 1004.83 1004.91 1005.29 1005.77 1006.05 1006.09 1006.10 1006.12 1006.28 1006.22 1006.25 1006.23 1006.15 1006.23 1006.19 1006.12 1005.92 1005.95 1005.78 1005.62 1005.20 1004.91 1004.70 1005.14 1005.63 1006.10 1006.33 1006.59 1006.97 1007.13 1007.29 1007.66 1008.00 1008.51 1008.96 1009.03 1009.47 1009.96
Wind_Speed
11 8 3 4 7 3 14 13 10 15 12 8 7 4 9 5 7 7 12 17 20 20 19 18 15 16 18 16 16 17 17 18 17 16 16 17 17 15 17 16 14 13 13 12 13 12 12 12 11
8 3 4 5 6 8 12 12 13 12 10 6 6 3 4 11 7 11 18 20 21 20 19 19 15 17 17 17 15 16 17 18 17 16 16 16 16 15 15 16 15 12 12 10 11 11 11 10 10
5 4 6 4 4 10 12 12 9 7 3 4 4 7 4 7 5 17 16 22 20 19 18 20 16 17 18 16 15 15 16 16 16 15 15 16 16 14 15 14 13 12 12 11 9 10 10 9 10
5 6 7 5 7 9 9 8 8 4 6 6 5 8 8 4 11 9 22 23 20 18 18 19 17 18 18 17 15 15 15 16 14 15 15 15 14 14 13 13 13 12 11 10 9 9 8 9 10
5 4 5 9 8 7 7 6 6 11 7 8 4 7 9 10 11 19 21 19 20 17 17 18 17 17 17 16 15 14 14 15 15 15 15 14 14 12 11 11 11 10 9 8 9 8 8 9 9
5 4 2 9 13 8 10 13 9 6 8 7 6 9 8 12 17 22 21 19 19 17 17 18 16 15 15 16 16 15 15 15 14 13 13 14 13 11 10 10 10 10 8 7 10 8 8 9 10
6 5 6 6 7 5 7 10 11 10 7 7 3 5 9 13 17 22 22 20 18 16 15 16 16 15 17 16 16 15 15 15 14 14 13 12 12 12 11 9 10 10 8 8 9 9 9 8 9
5 5 4 3 7 8 8 8 8 8 6 4 2 4 9 13 19 20 21 21 18 17 15 15 14 15 14 15 15 15 14 14 14 14 13 13 12 12 12 10 8 8 9 8 10 9 9 8 7
3 5 4 3 7 8 10 11 8 3 5 4 3 2 6 22 23 21 20 20 18 16 16 15 15 12 12 11 13 13 15 14 14 12 13 12 10 11 13 8 13 11 10 9 9 9 9 7 6
8 5 2 1 5 9 12 10 10 5 9 5 5 9 13 24 23 23 23 21 22 21 19 15 14 15 13 13 13 12 12 11 10 11 9 9 6 7 8 10 10 10 11 9 9 10 10 10 9
1 8 2 6 6 8 11 14 9 8 11 13 8 10 17 21 22 22 22 22 23 21 16 16 15 14 15 10 10 7 7 8 8 11 9 6 5 3 4 5 7 8 10 9 10 10 9 11 6
9 4 8 10 10 10 11 12 14 12 12 12 8 6 19 20 21 21 21 20 21 21 19 17 16 13 13 9 9 10 8 7 8 9 11 9 5 6 6 5 8 6 8 6 9 6 9 8 6
10 8 7 11 14 14 15 16 15 15 12 7 7 8 17 18 19 18 18 18 19 19 19 17 16 14 12 10 9 8 8 9 9 8 11 9 9 8 8 7 7 7 7 7 7 6 6 6 7
6 9 13 12 9 10 11 11 2 4 9 10 5 8 11 19 18 17 18 18 19 18 19 18 17 15 14 12 10 8 8 8 7 9 9 11 8 6 8 7 8 8 7 8 7 6 7 7 8
9 12 5 3 2 1 9 11 2 9 7 6 5 3 8 11 18 16 17 17 18 17 19 19 18 17 16 15 12 10 9 9 9 9 9 12 10 9 8 8 8 8 8 6 6 6 7 7 7
8 5 4 9 2 1 8 7 9 9 6 6 6 3 3 7 12 16 17 17 17 17 19 19 16 18 18 15 12 10 9 9 9 9 9 10 12 10 10 8 8 8 7 9 8 8 7 8 8
6 4 3 2 0 4 4 10 11 9 4 6 8 7 2 6 7 13 15 17 19 19 20 20 19 18 18 15 12 12 11 10 9 9 9 12 13 13 10 9 8 8 8 8 7 8 8 8 8
6 6 3 3 3 5 2 6 4 6 6 7 7 6 4 4 7 15 15 17 18 18 19 19 17 18 18 13 12 11 11 11 10 10 10 13 11 13 12 9 9 9 7 6 6 8 8 7 8
6 7 6 2 4 7 5 4 5 5 7 9 12 12 9 6 8 10 12 14 14 13 15 16 17 16 14 14 14 12 13 12 11 11 13 14 13 15 14 11 11 10 9 10 11 8 9 8 6
7 7 4 1 1 7 5 2 3 4 5 7 11 13 12 10 8 7 9 11 12 13 14 16 17 17 17 13 10 10 10 11 11 12 13 15 16 15 14 13 11 13 10 12 11 10 8 7 8
10 8 4 8 4 5 8 9 4 4 3 4 9 10 12 11 9 7 4 1 3 14 14 16 17 18 17 9 9 6 10 10 11 13 13 15 17 17 17 16 13 11 11 11 13 12 14 8 7
5 2 6 7 8 5 4 5 10 4 2 4 7 8 11 10 9 8 7 6 5 3 5 15 15 15 16 18 14 15 13 14 12 13 13 13 18 18 18 17 16 14 12 12 10 10 10 9 10
9 5 4 6 10 6 10 8 6 6 4 4 7 8 9 9 9 8 8 7 6 5 3 5 11 14 16 16 18 16 17 14 9 12 13 14 14 18 18 18 17 15 13 12 13 13 13 9 10
3 8 8 8 9 10 2 6 9 3 5 3 4 6 8 9 7 7 7 5 6 6 7 6 6 11 13 14 20 20 18 18 14 13 11 12 13 14 16 17 15 15 15 14 13 14 14 12 9
9 10 7 5 6 6 5 7 10 6 3 3 4 6 8 7 7 7 7 7 6 6 6 5 4 7 12 17 18 21 21 20 17 15 14 14 13 14 16 17 16 14 15 14 13 13 13 13 13
4 9 7 10 11 10 7 7 3 4 2 2 3 3 5 6 8 7 6 7 7 8 7 7 5 7 10 14 19 18 20 15 16 16 15 14 14 12 14 17 17 18 17 17 14 13 13 13 13
5 7 8 12 11 9 11 0 9 4 5 2 5 5 6 8 8 7 7 7 7 9 9 9 7 7 10 10 11 16 17 18 15 17 15 15 14 13 15 17 18 19 18 17 16 13 14 13 14
7 3 8 6 8 8 3 4 10 7 1 7 9 10 9 9 10 9 9 8 8 9 8 9 8 9 9 10 8 10 13 13 17 16 17 16 15 15 14 17 18 18 18 18 17 15 15 13 12
6 9 5 7 6 10 12 4 6 4 10 12 13 12 12 9 10 10 11 10 9 8 8 8 8 9 8 7 8 9 11 13 14 14 14 17 16 14 15 17 17 17 18 17 16 16 16 15 16
9 9 7 8 8 7 8 12 7 6 7 15 16 15 10 10 9 10 11 11 10 10 9 8 7 8 7 8 8 9 8 12 14 13 16 16 17 17 15 16 18 17 17 17 18 19 18 18 18
Wind_Direction
213 225 257 248 231 229 57 63 39 42 48 54 89 22 23 1 351 33 135 137 146 141 137 154 144 134 134 139 147 137 137 138 134 134 131 130 131 129 123 125 127 126 125 125 122 116 110 105 105
192 206 236 278 287 68 67 46 50 45 66 88 107 145 90 72 53 112 141 142 154 140 147 142 146 137 134 137 138 136 142 139 139 138 139 136 136 137 132 130 130 132 126 128 123 122 120 116 116
198 275 272 304 296 59 59 45 59 65 45 38 87 44 41 61 105 141 136 153 150 148 148 129 146 136 139 140 139 142 141 145 144 145 145 142 144 141 141 134 130 133 136 131 128 129 128 132 124
198 193 216 301 93 82 33 47 42 42 117 46 74 78 100 41 129 124 145 154 148 157 143 135 150 140 146 143 147 140 143 144 150 151 153 153 153 150 150 145 136 141 133 132 136 133 129 135 138
241 254 251 84 103 50 41 31 5 45 47 42 354 102 91 120 124 132 151 156 157 158 139 150 152 152 151 149 146 145 148 150 152 156 156 157 156 160 155 152 145 145 141 149 138 139 139 140 144
233 270 265 58 89 69 63 21 3 46 47 106 109 118 110 130 147 148 155 162 160 157 150 148 156 158 155 153 151 155 157 156 155 160 165 166 167 170 165 160 160 159 161 156 149 157 151 150 155
310 277 58 31 57 64 11 354 355 352 2 53 75 94 117 158 151 153 157 164 163 161 163 155 166 169 164 161 161 162 161 165 164 170 171 168 172 176 170 173 174 174 156 157 150 152 156 164 159
298 272 149 25 17 43 19 335 358 349 18 74 355 93 160 155 158 157 161 164 170 169 172 168 170 169 175 167 167 168 170 169 177 171 170 172 171 172 172 162 174 160 163 160 151 161 166 161 157
273 237 172 41 343 347 346 352 32 25 312 290 295 6 94 146 157 162 165 168 173 178 177 177 168 174 175 175 172 172 174 181 179 176 177 172 184 178 157 174 148 170 172 162 159 168 168 161 172
264 271 143 66 346 315 318 335 339 313 319 278 229 102 138 155 163 168 176 177 179 182 184 183 181 176 171 180 170 184 177 184 186 174 180 210 160 186 200 145 159 172 169 170 173 173 171 197 183
181 291 50 272 330 312 308 311 336 316 305 31 333 158 161 169 171 177 184 187 183 181 186 187 186 180 182 187 169 183 192 192 189 178 174 178 174 206 169 157 180 172 183 182 187 172 203 200 226
260 239 284 298 308 289 280 303 306 307 302 321 307 261 168 180 184 185 186 189 184 182 188 183 182 180 193 178 190 182 190 195 187 192 193 164 183 178 180 202 179 209 179 209 203 174 208 176 218
244 287 296 293 288 282 286 279 283 301 297 323 299 228 176 191 190 191 187 185 184 181 181 182 178 179 188 191 192 202 196 193 201 182 190 198 196 186 197 186 166 192 201 182 198 176 181 201 212
352 288 281 270 285 287 272 276 252 305 351 309 282 242 209 192 194 187 187 184 185 181 179 176 181 183 188 194 196 198 199 186 204 201 190 210 203 179 190 183 213 191 196 165 214 193 195 215 212
277 279 252 85 153 325 302 235 165 354 332 299 296 244 221 213 182 191 186 185 185 181 177 179 181 189 192 190 197 199 189 211 197 211 190 199 212 188 220 209 203 206 181 201 216 193 206 209 219
265 259 247 111 334 82 298 109 86 356 330 332 330 326 233 190 197 178 182 184 181 181 181 181 186 188 192 192 193 204 204 202 204 203 187 202 207 206 212 215 205 198 208 194 198 202 211 215 215
209 330 311 125 195 315 281 334 15 349 321 335 326 349 122 148 183 151 177 186 182 184 183 185 185 192 195 195 198 204 198 216 206 208 205 190 204 208 214 218 211 201 208 206 204 207 212 207 230
350 327 340 311 36 314 293 349 23 9 14 39 25 33 91 139 160 154 181 188 190 190 185 188 188 190 189 196 200 204 201 207 215 206 206 197 207 208 213 214 222 206 214 205 225 223 215 231 216
310 299 301 72 36 294 46 28 39 40 36 47 58 47 66 94 120 149 181 189 195 191 194 193 200 192 190 193 197 203 204 204 208 213 208 204 206 204 205 222 202 211 213 218 214 221 222 235 228
268 287 279 124 103 284 11 88 78 58 52 41 55 58 54 85 107 141 169 196 180 193 203 202 207 200 198 197 216 204 212 209 209 208 206 209 205 207 210 214 212 208 219 220 223 220 236 228 213
230 272 334 313 319 225 292 191 141 111 144 99 76 75 71 62 75 68 76 57 242 177 209 208 212 212 206 204 202 221 218 225 212 209 205 206 210 206 208 208 225 210 224 215 217 217 228 233 229
230 352 279 275 279 326 330 321 169 136 147 156 104 75 75 73 74 67 69 75 92 82 240 214 219 222 217 199 202 213 198 208 224 210 209 204 209 211 209 210 209 221 216 228 219 228 227 234 238
56 342 321 276 266 283 217 268 119 149 198 127 87 68 62 60 59 68 53 48 45 38 17 300 226 218 225 208 222 212 225 222 208 220 211 208 201 210 212 210 209 211 219 218 227 216 211 222 237
324 252 229 235 255 262 24 282 287 29 34 135 94 50 27 24 35 51 77 66 31 19 10 344 300 234 224 215 215 229 218 227 219 205 213 209 214 206 213 211 213 208 215 220 216 224 228 233 213
259 299 283 251 243 300 81 275 270 39 92 66 16 1 7 5 22 21 34 34 27 17 4 330 279 263 251 236 224 218 224 220 222 211 211 208 210 211 206 207 207 211 214 217 217 215 225 221 231
351 333 302 298 296 311 151 260 94 53 133 92 346 322 326 355 0 3 12 16 17 3 1 341 301 276 264 252 243 229 223 222 223 218 225 217 222 215 205 200 212 216 216 217 216 217 219 221 225
100 277 3 280 234 259 258 242 228 150 190 278 325 330 342 338 339 343 346 359 353 347 347 340 322 311 311 284 251 234 226 224 227 231 211 229 227 221 213 205 210 216 218 217 216 222 216 216 221
309 30 238 192 280 284 264 259 273 164 274 328 327 336 339 325 325 331 332 335 338 336 332 327 321 311 311 310 272 243 233 232 228 236 226 221 230 221 229 215 212 217 216 216 215 219 221 220 227
180 216 241 301 290 304 294 267 95 280 324 323 323 332 327 325 318 325 322 330 320 316 320 318 320 312 304 313 313 297 257 230 232 228 229 232 226 228 216 222 219 215 215 214 217 223 221 208 223
276 292 274 300 291 253 277 274 325 4 322 309 316 321 324 311 324 325 330 322 312 309 305 310 314 309 313 310 288 279 285 281 261 239 232 232 222 228 223 219 220 220 220 215 220 220 222 214 220